Погода в Ижевске

Погода в Ижевске : погода сейчас, прогноз погоды и архив. Всё, что Вы хотите узнать о погоде в Ижевске!

Хотите узнать прогноз погоды в Ижевске? Тогда Вам сюда: Погода в Ижевске

Поиск расширенной информации на нашем сайте:

Другие новости

Новости СМИ2

Главная страница сайта

Новости сайта

03.07.2017

Напоминаем, что на нашем специализированном сайте Метеоцентр.Азия вы можете получить высокодетализированные автоматические прогнозы погоды по пунктам России, СНГ и мира в авиационном формате (включающие направление и скорость ветра, видимость, явления погоды, количество и форму облачности, нижнюю и верхнюю границу облачности).

Рекомендуем: биографии мастеров спорта, ашихара.

Погода в Ижевске - сегодня

Время (UTC), дата Ветер
(°,м/с) 
Видим.   Явления Облачность Т
(°С)
Тd
(°С)
f(%) Тe
(°С)
Pmin
(гПа)
dP
(гПа)
Po
(мм)
O2
(г/м3)
Тmin Tmax R s Состояние
почвы
15 13.02.18 350 (С) 2-3{06}  10 км    1/0 верхняя 
[Ci fib]
-11.4 -15.8 70 -13  1030.6  0.6  757  320    -7.5       
03 14.02.18 320 (СЗ) 2-2{03}  10 км    ясно 
-18.8 -19.4 95 -21  1033.8  0.8  759  330  -19      34  равномерный
сухой снег
100% 
06 14.02.18 тихо () -2{03}  10 км    ясно 
-18.2 -18.8 95 -18  1034.3  0.6  759  329           
15 14.02.18 тихо () -1{02}  10 км    4/0 верхняя 
[Ci fib]
-9.2 -13.7 70 -9  1034.9  0.6  760  318    -6.1       
03 15.02.18 тихо () -2{03}  10 км  слаб. снег  10/0 средняя 
[As op]
-10.6 -11.2 95 -11  1037.2  0.8  762  320  -10.7    0.6  34  равномерный
сухой снег
100% 
15 15.02.18 280 (З) 2-3{04}  10 км    6/0 средняя 
[Ac trans]
-5.8 -12.5 59 -7  1039.3  0.3  764  316    -4       
03 16.02.18 тихо () -2{03}  10 км    3/0 средняя 
[Ac trans]
-15.2 -17.2 85 -15  1042.8  766  328  -15.3      34  равномерный
сухой снег
100% 
18 16.02.18 220 (ЮЗ) 2-3{04}  10 км    ясно 
-10.8 -15.2 70 -13  1041.8  -0.4  765  322           
21 16.02.18 200 (Ю) 2-3{05}  10 км    ясно 
-13.1 -15.8 80 -15  1041.7  -0.3  765  325           
03 17.02.18 200 (Ю) 2-3{05}  10 км    9/0 средняя 
[Ac trans]
-11.2 -11.8 95 -13  1040.7  -0.2  764  322  -13.4      34  равномерный
сухой снег
100% 
15 17.02.18 190 (Ю) 2-3{04}  10 км    9/0 средняя 
[Ac trans]
-8.8 -11.6 80 -10  1038.3  -0.6  763  319    -5.2       
03 18.02.18 тихо () -2{03}  10 км    9/0 средняя 
[Ac trans]
-10.8 -12.1 90 -11  1036.1  -0.3  761  320  -11.1      34  равномерный
сухой снег
100% 
15 18.02.18 160 (Ю) 2-3{05}  10 км    9/0 средняя 
[Ac trans]
-8.4 -11.2 80 -10  1033  -1.1  759  317    -5.9       
03 19.02.18 140 (ЮВ) 4-5{06}  4000 м  слаб. снег  10/4 1000 м средняя 
[Sc|Ac As]
-9.6 -11.7 85 -14  1027  -1.9  754  316  -11.3    0.0  34  равномерный
сухой снег
100% 
15 19.02.18 160 (Ю) 4-5{08}  10 км  слаб. снег  10/3 1000 м средняя 
[Sc|Ac As]
-8.1 -9.5 90 -12  1023.2  -0.9  752  313    -6.9     
03 20.02.18 180 (Ю) 2-3{04}  4000 м  слаб. снег  10/5 1000 м средняя 
[Sc|Ac As]
-9.2 -9.9 95 -11  1018.1  -1.5  748  313  -9.4    36  равномерный
сухой снег
100% 
15 20.02.18 170 (Ю) 2-3{04}  10 км  {снег}  4/0 средняя 
[Ac trans]
-12.2 -13.5 90 -14  1015.9  -0.4  746  316    -7.7  0.0     
03 21.02.18 200 (Ю) 2-3{04}  10 км  слаб. снег  10/3 1000 м средняя 
[Sc|Ac As]
-11.2 -11.8 95 -13  1013.2  -0.6  744  314  -12.4    0.9  37  равномерный
сухой снег
100% 
15 21.02.18 220 (ЮЗ) 2-3{04}  10 км  слаб. снег  10/3 1000 м средняя 
[Sc|Ac As]
-9.7 -11.4 87 -11  1014.2  0.5  745  312    -6.6  0.3     
03 22.02.18 210 (ЮЗ) 1-2{03}  10 км  слаб. снег  10/3 1000 м средняя 
[Sc|Ac As]
-15.7 -16.3 95 -16  1016.9  0.2  747  321  -16    0.5  38  равномерный
сухой снег
100% 
09 22.02.18 220 (ЮЗ) 2-3{04}  10 км    3/0 средняя 
[Ac trans]
-11.4 -14.9 75 -13  1017.7  0.4  747  316           
15 22.02.18 240 (ЮЗ) 2-3{05}  10 км  слаб. снег  10/4 600 м средняя 
[Sc|Ac As]
-14 -16 85 -16  1019.4  0.9  749  319    -11  0.0     
03 23.02.18 230 (ЮЗ) 2-3{04}  10 км    10/0 верхняя 
[Ci fib]
-21 -22.2 90 -24  1022.3  0.1  750  329  -21    0.0  38  равномерный
сухой снег
100% 
15 23.02.18 220 (ЮЗ) 2-4{07}  10 км  слаб. снег  10/4 1000 м средняя 
[Sc diur, vesp|As trans]
-12.6 -14.6 85 -15  1020.9  -0.1  750  318    -10.7  0.0     
03 24.02.18 220 (ЮЗ) 2-3{05}  10 км  слаб. снег  10/0 средняя 
[Ac As]
-18.2 -19.4 90 -21  1022.7  0.1  751  326  -18.5    0.0  38  равномерный
сухой снег
100% 
Время (UTC), дата Ветер
(°,м/с) 
Видим.   Явления Облачность Т
(°С)
Тd
(°С)
f(%) Тe
(°С)
Pmin
(гПа)
dP
(гПа)
Po
(мм)
O2
(г/м3)
Тmin Tmax R s Состояние
почвы

Для получения пояснительной информации подведите курсор к названию столбца.

ПОГОДА в Ижевске - архив

Всё, что Вы хотите узнать о погоде в Ижевске - удобно и подробно!

Выберите нужную дату (начиная с 1 января 2015* года) и нажмите кнопку "Найти".
Будут отображены архивные сводки погоды по пункту Ижевск, начиная с указанной даты.


Отображать данные в формате CSV (для использования в таблицах Excel)


Внимание! Наш архив погоды предназначен исключительно для личного некоммерческого использования в познавательных целях. Если Вам необходимы официальные справки о состоянии погоды (для производственных, юридических, коммерческих и т.п. целей), обращайтесь в органы Росгидромета.

*Примечание: данная дата относится к архиву по метеостанциям СССР (Россия, СНГ, Балтия).
Архив по метеостанциям Зарубежной Европы и Азии (кроме Китая) хранится 10 дней, по другим регионам земного шара (Китай, Африка, Америка, Австралия, Океания) - 1 день.

Ижевск - район местоположения метеостанции


Название, широта, долгота, высота метеостанции:
Ижевск 56.8°ш. 53.4°д. 159 м над ур. моря [Российская Федерация]

Дополнительная информация

В oтличие oт бoльшинства пoгoдных сайтoв мы публикуем пoдрoбную метеoинфoрмацию в детальнoм прoфессиoнальнoм фoрмате.

Характеристики температуры и влажнoсти вoздуха измеряются на высoте 2 м в тени вдали oт зданий и деревьев.
Скoрoсть ветра измеряется на высoте 10 м (на урoвне рoста челoвека скoрoсть ветра ниже в 1.5-2 раза). Если метеoстанция нахoдится в гoрoде или в лесу, тo скoрoсть ветра занижена на 2-4 м/с пo сравнению с oткрытым местoм. Скoрoсть ветра над акватoриями крупных рек и oзёр, а также на вершинах хoлмoв на 2-5 м/с выше, чем в oбычных услoвиях.
Атмoсфернoе давление в разных тoчках местнoсти мoжет значительнo oтличаться oт давления на метеoстанции, в зависимoсти oт услoвий рельефа (при пoдъёме на 10 м давление пoнижается примернo на 1 мм рт.ст.).